Regional Weather Roundup
Issued by NWS

Home | Current Version | Previous Version | Text Only | Print | Product List | Glossary On
Versions: 1 2 3 4 5 6 7 8 9 10 11 12 13 14 15 16 17 18 19 20 21 22 23 24 25 26 27 28 29 30 31 32 33 34 35 36 37 38 39 40 41 42 43 44 45 46 47 48 49 50
871
ASUS46 KPQR 110710
RWROR

OREGON REGIONAL WEATHER ROUNDUP
NATIONAL WEATHER SERVICE PORTLAND OR
1100 PM PST WED FEB 10 2016

NOTE: "FAIR" INDICATES FEW OR NO CLOUDS BELOW 12,000 FEET WITH
NO SIGNIFICANT WEATHER AND/OR OBSTRUCTIONS TO VISIBILITY.

ORZ001>013-110800-
NORTHWEST OREGON


CITY           SKY/WX    TMP DP  RH WIND       PRES   REMARKS
ASTORIA        MOCLDY    49  48  97 E3        30.24F
NEWPORT        CLOUDY    54  54 100 E9        30.21F
PORTLAND       CLOUDY    50  45  83 W3        30.26F
VANCOUVER WA   CLOUDY    48  44  86 CALM      30.25F
SCAPPOOSE      CLOUDY    53  49  86 CALM      30.25F
HILLSBORO      CLOUDY    48  47  96 CALM      30.25S
AURORA         CLOUDY    52  49  89 N5        30.25F
MCMINNVILLE    CLOUDY    53  49  86 N8        30.24F
SALEM          CLOUDY    50  47  89 CALM      30.22F
CORVALLIS      MOCLDY    52  48  87 CALM      30.23F
EUGENE         CLOUDY    50  47  89 S3        30.22F
$$

ORZ021-028-110800-
SOUTHWEST OREGON


CITY           SKY/WX    TMP DP  RH WIND       PRES   REMARKS
NORTH BEND     CLOUDY    54  52  94 CALM      30.19F
BROOKINGS      CLOUDY    53  50  89 CALM      30.17F
ROSEBURG       CLOUDY    52  48  86 CALM      30.21F
SEXTON SUMMIT  PTCLDY    50  34  54 SE12      30.22F
MEDFORD        PTCLDY    50  44  80 SE3       30.22F
$$

ORZ014>016-041-110800-
COLUMBIA GORGE


CITY           SKY/WX    TMP DP  RH WIND       PRES   REMARKS
TROUTDALE      MOCLDY    50  45  83 N5        30.26S
THE DALLES     CLOUDY    40  37  89 CALM      30.30F
$$

ORZ029>031-041-044-049-050-061>064-502-503-505>511-110800-
EASTERN OREGON


CITY           SKY/WX    TMP DP  RH WIND       PRES   REMARKS
REDMOND        CLOUDY    43  35  73 CALM      30.28R
BEND           CLOUDY    45  34  65 SE6       30.28R
PRINEVILLE     CLOUDY    46  34  61 SE5       30.29R
KLAMATH FALLS  MOCLDY    39  34  82 CALM      30.29S
LAKEVIEW       PTCLDY    34  27  75 NW5       30.35S WCI  30
HERMISTON      CLOUDY    42  38  85 SE6       30.28S
PENDLETON      CLOUDY    46  37  71 SE5       30.29R
JOHN DAY       MOCLDY    45  32  60 SE8       30.31S
MEACHAM        PTCLDY    35  29  78 CALM      30.32R
LA GRANDE      PTCLDY    34  25  69 N6        30.35R WCI  29
BAKER CITY     PTCLDY    31  30  96 CALM      30.39S
BURNS          MOCLDY    24  22  91 W5        30.36F WCI  18
ROME             N/A     32  31  96 CALM      30.35S
ONTARIO        CLOUDY    35  31  85 CALM      30.46S
$$




USA.gov is the U.S. government's official web portal to all federal, state and local government web resources and services.